Monument Pass, CO

3:54 PM MDT on July 20, 2017 (GMT -0600)
Monument Pass

Weather History for KMNH - January, 2013

Change the Weather History Date:

Thursday, January 10, 2013

  Actual Average Record
Temperature  
Mean Temperature 37 °F -  
Max Temperature 46 °F - 57 °F (2005)
Min Temperature 28 °F - 1 °F (2011)
Degree Days  
Heating Degree Days 28    
Month to date heating degree days  
Moisture  
Dew Point 10 °F    
Average Humidity 34    
Maximum Humidity 55    
Minimum Humidity 15    
Precipitation  
Precipitation 0.00 in - 0.10 in (2002)
Sea Level Pressure  
Sea Level Pressure 29.74 in    
Wind  
Wind Speed 14 mph (SSW)    
Max Wind Speed 25 mph    
Max Gust Speed 31 mph    
Visibility 10 miles    
Events      
T = Trace of Precipitation, MM = Missing Value Source: NWS Daily Summary

Daily Weather History Graph

Daily Weather History Graph

Search for Another Location

Airport or City:

Trip Planner

Search our weather history database for the weather conditions in past years. The results will help you decide how hot, cold, wet, or windy it might be!

Date:

Astronomy

Jan. 10, 2013 Rise Set
Actual Time 7:17 AM MST 4:54 PM MST
Civil Twilight 6:48 AM MST 5:24 PM MST
Nautical Twilight 6:14 AM MST 5:57 PM MST
Astronomical Twilight 5:42 AM MST 6:30 PM MST
Moon 5:59 AM MST (1/10) 4:05 PM MST (1/10)
Length of Visible Light 10h 36m
Length of Day
9h 37m
Waning Crescent, 2% of the Moon is Illuminated
Jan 10
Waning Crescent
Jan 11
New
Jan 18
First Quarter
Jan 26
Full
Feb 3
Last Quarter

Hourly Weather History & Observations

Time (MST) Temp. Windchill Dew Point Humidity Pressure Visibility Wind Dir Wind Speed Gust Speed Precip Events Conditions
12:15 AM 30.2 °F 21.9 °F 14.0 °F 51% 30.06 in 10.0 mi SSW 9.2 mph - N/A   Clear
12:35 AM 32.0 °F 22.5 °F 12.2 °F 44% 30.05 in 10.0 mi South 12.7 mph - N/A   Clear
12:55 AM 32.0 °F 21.6 °F 14.0 °F 48% 30.03 in 10.0 mi South 15.0 mph - N/A   Clear
1:14 AM 32.0 °F 20.5 °F 12.2 °F 44% 30.02 in 10.0 mi South 18.4 mph - N/A   Clear
1:35 AM 33.8 °F 22.2 °F 12.2 °F 41% 30.01 in 10.0 mi South 20.7 mph - N/A   Clear
1:55 AM 35.6 °F 25.2 °F 12.2 °F 38% 29.99 in 10.0 mi South 18.4 mph 24.2 mph N/A   Clear
2:15 AM 35.6 °F 23.7 °F 10.4 °F 35% 29.97 in 10.0 mi South 24.2 mph - N/A   Clear
2:35 AM 35.6 °F 24.0 °F 8.6 °F 33% 29.97 in 10.0 mi South 23.0 mph - N/A   Clear
2:55 AM 35.6 °F 24.8 °F 8.6 °F 33% 29.97 in 10.0 mi South 19.6 mph - N/A   Clear
3:15 AM 33.8 °F 23.2 °F 8.6 °F 35% 29.96 in 10.0 mi South 17.3 mph - N/A   Clear
3:35 AM 32.0 °F 21.6 °F 8.6 °F 38% 29.95 in 10.0 mi South 15.0 mph - N/A   Clear
3:55 AM 32.0 °F 20.8 °F 10.4 °F 41% 29.94 in 10.0 mi SSE 17.3 mph - N/A   Clear
4:15 AM 30.2 °F 18.5 °F 14.0 °F 51% 29.93 in 10.0 mi SSE 17.3 mph - N/A   Clear
4:35 AM 28.4 °F 15.8 °F 14.0 °F 55% 29.92 in 10.0 mi South 18.4 mph - N/A   Clear
4:55 AM 28.4 °F 16.6 °F 14.0 °F 55% 29.91 in 10.0 mi SSE 16.1 mph - N/A   Clear
5:35 AM 30.2 °F 16.8 °F 12.2 °F 47% 29.87 in 10.0 mi South 23.0 mph - N/A   Clear
5:55 AM 32.0 °F 20.1 °F 10.4 °F 41% 29.87 in 10.0 mi South 19.6 mph 26.5 mph N/A   Clear
6:15 AM 32.0 °F 20.8 °F 10.4 °F 41% 29.87 in 10.0 mi South 17.3 mph - N/A   Clear
6:55 AM 30.2 °F 22.6 °F 8.6 °F 40% 29.87 in 10.0 mi South 8.1 mph - N/A   Clear
7:35 AM 30.2 °F 20.2 °F 8.6 °F 40% 29.86 in 10.0 mi SSE 12.7 mph - N/A   Clear
7:55 AM 32.0 °F 22.1 °F 6.8 °F 35% 29.84 in 10.0 mi SSE 13.8 mph - N/A   Clear
8:14 AM 32.0 °F 23.0 °F 8.6 °F 38% 29.83 in 10.0 mi South 11.5 mph - N/A   Clear
8:55 AM 37.4 °F 28.2 °F 10.4 °F 33% 29.82 in 10.0 mi South 16.1 mph - N/A   Clear
9:14 AM 37.4 °F 28.2 °F 10.4 °F 33% 29.81 in 10.0 mi South 16.1 mph - N/A   Clear
9:35 AM 37.4 °F 27.5 °F 12.2 °F 36% 29.80 in 10.0 mi South 18.4 mph 23.0 mph N/A   Clear
9:55 AM 37.4 °F 28.2 °F 14.0 °F 38% 29.79 in 10.0 mi South 16.1 mph 20.7 mph N/A   Clear
10:15 AM 39.2 °F 29.8 °F 14.0 °F 36% 29.79 in 10.0 mi South 18.4 mph 23.0 mph N/A   Clear
10:35 AM 39.2 °F 30.8 °F 14.0 °F 36% 29.77 in 10.0 mi South 15.0 mph 21.9 mph N/A   Clear
10:55 AM 41.0 °F 33.5 °F 14.0 °F 33% 29.75 in 10.0 mi South 13.8 mph - N/A   Clear
11:15 AM 41.0 °F 33.5 °F 12.2 °F 31% 29.74 in 10.0 mi South 13.8 mph - N/A   Clear
11:35 AM 41.0 °F 33.9 °F 12.2 °F 31% 29.72 in 10.0 mi South 12.7 mph - N/A   Clear
11:55 AM 39.2 °F 32.5 °F 14.0 °F 36% 29.71 in 10.0 mi SSW 10.4 mph - N/A   Clear
12:35 PM 41.0 °F 38.0 °F 12.2 °F 31% 29.68 in 10.0 mi SSW 4.6 mph - N/A   Clear
12:55 PM 41.0 °F 37.1 °F 12.2 °F 31% 29.67 in 10.0 mi SSW 5.8 mph - N/A   Clear
1:15 PM 41.0 °F 35.2 °F 12.2 °F 31% 29.67 in 10.0 mi WSW 9.2 mph - N/A   Clear
1:34 PM 41.0 °F 35.2 °F 14.0 °F 33% 29.67 in 10.0 mi WSW 9.2 mph - N/A   Clear
1:55 PM 42.8 °F 39.3 °F 6.8 °F 23% 29.67 in 10.0 mi SSW 5.8 mph - N/A   Clear
2:15 PM 42.8 °F 39.3 °F 8.6 °F 25% 29.66 in 10.0 mi WSW 5.8 mph - N/A   Clear
2:35 PM 42.8 °F 37.0 °F 6.8 °F 23% 29.65 in 10.0 mi WSW 10.4 mph - N/A   Clear
2:55 PM 44.6 °F 39.7 °F 3.2 °F 18% 29.66 in 10.0 mi SW 9.2 mph - N/A   Clear
3:15 PM 44.6 °F 40.7 °F 3.2 °F 18% 29.65 in 10.0 mi SW 6.9 mph - N/A   Clear
3:35 PM 44.6 °F 41.4 °F -0.4 °F 15% 29.65 in 10.0 mi SW 5.8 mph - N/A   Clear
3:55 PM 41.0 °F 36.4 °F 5.0 °F 23% 29.64 in 10.0 mi South 6.9 mph - N/A   Clear
4:15 PM 41.0 °F 35.2 °F 8.6 °F 26% 29.63 in 10.0 mi SW 9.2 mph - N/A   Clear
4:35 PM 46.4 °F 41.5 °F 1.4 °F 16% 29.62 in 10.0 mi SW 10.4 mph - N/A   Clear
4:55 PM 42.8 °F 37.0 °F 5.0 °F 21% 29.62 in 10.0 mi WSW 10.4 mph - N/A   Clear
5:15 PM 37.4 °F 30.8 °F 6.8 °F 28% 29.62 in 10.0 mi SW 9.2 mph - N/A   Clear
5:35 PM 35.6 °F 27.5 °F 8.6 °F 33% 29.62 in 10.0 mi SSW 11.5 mph - N/A   Clear
5:55 PM 41.0 °F 36.4 °F 5.0 °F 23% 29.61 in 10.0 mi SW 6.9 mph - N/A   Clear
6:15 PM 39.2 °F 34.2 °F 3.2 °F 22% 29.61 in 10.0 mi SSW 6.9 mph - N/A   Clear
6:35 PM 37.4 °F 28.9 °F 5.0 °F 26% 29.60 in 10.0 mi SW 13.8 mph - N/A   Clear
6:55 PM 37.4 °F 29.8 °F 8.6 °F 30% 29.60 in 10.0 mi SSW 11.5 mph - N/A   Clear
7:15 PM 39.2 °F 30.8 °F 8.6 °F 28% 29.60 in 10.0 mi SW 15.0 mph - N/A   Clear
7:55 PM 42.8 °F 33.1 °F 12.2 °F 29% 29.59 in 10.0 mi WSW 25.3 mph 31.1 mph N/A   Clear
8:15 PM 42.8 °F 34.5 °F 12.2 °F 29% 29.58 in 10.0 mi SW 18.4 mph 29.9 mph N/A   Clear
8:35 PM 42.8 °F 36.2 °F 12.2 °F 29% 29.58 in 10.0 mi WSW 12.7 mph 28.8 mph N/A   Clear
8:55 PM 37.4 °F 30.8 °F 12.2 °F 36% 29.58 in 10.0 mi West 9.2 mph - N/A   Clear
9:15 PM 33.8 °F 26.4 °F 12.2 °F 41% 29.58 in 10.0 mi WSW 9.2 mph - N/A   Clear
9:35 PM 35.6 °F 26.6 °F 12.2 °F 38% 29.58 in 10.0 mi SW 13.8 mph - N/A   Clear
9:55 PM 41.0 °F 32.2 °F 12.2 °F 31% 29.57 in 10.0 mi West 18.4 mph 25.3 mph N/A   Clear
10:15 PM 39.2 °F 30.2 °F 14.0 °F 36% 29.56 in 10.0 mi WSW 17.3 mph - N/A   Clear
10:35 PM 37.4 °F 29.8 °F 14.0 °F 38% 29.55 in 10.0 mi West 11.5 mph - N/A   Clear
10:54 PM 37.4 °F 29.8 °F 12.2 °F 36% 29.53 in 10.0 mi SW 11.5 mph 16.1 mph N/A   Clear
11:14 PM 33.8 °F 25.8 °F 12.2 °F 41% 29.53 in 10.0 mi SSW 10.4 mph - N/A   Clear
11:35 PM 32.0 °F 23.0 °F 14.0 °F 48% 29.53 in 10.0 mi SSW 11.5 mph - N/A   Clear
11:55 PM 32.0 °F 23.6 °F 14.0 °F 48% 29.52 in 10.0 mi South 10.4 mph - N/A   Clear